Voltar ao catálogo

STARLINK-36148

AtivoComunicaçõesVLEO
NORAD 67005·PAYLOAD·🇺🇸 United States

Lançado Dec 10, 2025 de Vandenberg Space Force Base

Loading…

Próximas Passagens (próximas 24 horas)

TLE

AtualizadoSource: CelesTrak SupGP

Época: Sep 15, 2026, 03:57 UTC

1 67005C 25293C   26258.16506944  .00045057  00000+0  37738-2 0  2585
2 67005  70.0022 336.8233 0003566 262.7237 216.0010 14.98328883    13

Acompanhe STARLINK-36148 em tempo real com AllMySat

Download on the App Store